F3825 Weather Reports


time (UTC)temp
F
wind
direction
speed
knots
gust
knots
rain 1hr
in
rain 24hr
in
rain mn
in
humidity
%
barometer
mb
20260505035909 71 55 0.0 7.0 0.00 0.00 0.00 80 1006.0
20260505032615 72 326 0.0 3.5 0.00 0.00 0.00 78 1005.8
20260505031636 73 323 0.0 3.5 0.00 0.00 0.00 77 1005.8
20260505030623 73 323 0.0 3.5 0.00 0.00 0.00 77 1006.0
20260505025619 73 24 0.0 2.6 0.00 0.00 0.00 76 1005.9
20260505024638 74 57 0.0 2.6 0.00 0.00 0.00 75 1005.8
20260505023628 74 5 0.0 4.3 0.00 0.00 0.00 75 1005.9
20260505022607 74 355 0.0 2.6 0.00 0.00 0.00 74 1005.7
20260505021618 74 355 0.0 3.5 0.00 0.00 0.00 73 1005.7
20260505020547 75 0 0.0 4.3 0.00 0.00 0.00 73 1005.7
20260505015514 75 15 0.0 4.3 0.00 0.00 0.00 72 1005.7
20260505014454 75 9 0.0 3.5 0.00 0.00 0.00 71 1005.7
20260505013504 75 355 0.0 3.5 0.00 0.00 0.00 71 1005.8
20260505010252 77 29 0.0 7.0 0.00 0.00 0.00 67 1005.5
20260505005255 77 0 0.9 11.3 0.00 0.00 0.00 65 1005.4
20260505004222 78 39 1.7 11.3 0.00 0.00 0.00 65 1005.4
20260505003221 78 5 0.9 8.7 0.00 0.00 0.00 64 1005.4
20260505002203 79 11 1.7 12.2 0.00 0.00 0.00 63 1005.3
20260505001150 79 61 1.7 12.2 0.00 0.00 0.00 62 1005.2
20260505000213 80 26 1.7 10.4 0.00 0.00 0.00 62 1005.4
20260504235204 80 5 1.7 10.4 0.00 0.00 0.00 61 1005.5
20260504234215 80 26 1.7 10.4 0.00 0.00 0.00 61 1005.8
20260504233206 80 273 1.7 9.6 0.00 0.00 0.00 61 1005.9
20260504232133 80 5 1.7 14.8 0.00 0.00 0.00 61 1005.9
20260504231143 81 40 4.3 14.8 0.00 0.00 0.00 59 1005.9
20260504223809 82 37 3.5 13.0 0.00 0.00 0.00 59 1006.3
20260504222758 82 90 2.6 13.0 0.00 0.00 0.00 58 1006.2
20260504221809 82 30 2.6 12.2 0.00 0.00 0.00 60 1006.4
20260504220758 82 94 2.6 12.2 0.00 0.00 0.00 60 1006.4
20260504215749 82 19 1.7 8.7 0.00 0.00 0.00 59 1006.5
20260504214723 82 10 1.7 10.4 0.00 0.00 0.00 59 1006.5
20260504213709 81 355 1.7 13.9 0.00 0.00 0.00 61 1006.7
20260504212731 82 342 2.6 13.9 0.00 0.00 0.00 59 1007.0
20260504211702 82 318 1.7 7.8 0.00 0.00 0.00 58 1007.1
20260504210721 82 70 1.7 10.4 0.00 0.00 0.00 60 1007.3
20260504205738 81 39 1.7 10.4 0.00 0.00 0.00 61 1007.5
20260504204706 80 14 2.6 10.4 0.00 0.00 0.00 61 1007.6
20260504202558 81 101 1.7 13.9 0.00 0.00 0.00 60 1007.9
20260504200436 81 27 3.5 12.2 0.00 0.00 0.00 60 1008.3
20260504195437 81 13 2.6 12.2 0.00 0.00 0.00 59 1008.8
20260504193324 81 350 3.5 16.5 0.00 0.00 0.00 61 1008.9
20260504192304 79 19 2.6 16.5 0.00 0.00 0.00 63 1009.1
20260504191231 78 355 3.5 12.2 0.00 0.00 0.00 61 1009.2
20260504190214 79 38 3.5 12.2 0.00 0.00 0.00 64 1009.4
20260504185228 79 349 2.6 12.2 0.00 0.00 0.00 64 1009.4
20260504182035 77 18 4.3 13.9 0.00 0.00 0.00 64 1010.0
20260504175905 75 22 3.5 13.0 0.00 0.00 0.00 68 1010.3
20260504174908 75 56 3.5 13.0 0.00 0.00 0.00 66 1010.4
20260504160313 72 36 4.3 12.2 0.00 0.00 0.00 70 1011.5
20260504140650 66 345 0.0 7.8 0.00 0.00 0.00 74 1012.1
20260504130355 61 30 0.0 5.2 0.00 0.00 0.00 79 1012.1
20260504080812 61 355 0.0 0.0 0.00 0.00 0.00 76 1012.3
20260504050238 64 45 0.0 3.5 0.00 0.00 0.00 69 1014.3
20260504045258 64 9 0.0 2.6 0.00 0.00 0.00 68 1014.3
20260504043142 65 328 0.0 4.3 0.00 0.00 0.00 67 1014.5
20260504042155 65 351 0.0 5.2 0.00 0.00 0.00 66 1014.6
20260504041127 66 315 0.0 5.2 0.00 0.00 0.00 65 1014.7
20260504040123 66 347 0.0 4.3 0.00 0.00 0.00 63 1014.7